Wind_Speed
8 8 9 9 10 10 10 11 11 11 12 12 13 13 13 13 14 14 15 15 16 16 15 14 13 12 11 11 10 10 10 10 10 10 10 10 9 8 7 7 7 7 7
6 6 7 7 8 9 9 9 9 10 10 11 11 12 12 12 12 13 14 15 15 15 15 14 13 12 11 10 10 9 9 9 9 9 9 9 9 8 7 6 5 5 5
5 5 5 6 6 7 8 8 8 8 9 10 11 11 11 11 11 12 13 14 14 15 15 14 14 13 11 10 9 9 8 8 7 7 7 7 7 7 6 6 5 4 4
4 5 5 5 5 6 7 7 7 8 8 9 10 10 11 10 11 11 12 13 14 14 14 14 14 13 12 11 9 8 8 7 7 6 6 6 5 5 5 4 4 4 3
5 5 6 6 7 7 8 8 8 8 8 8 9 9 10 10 11 11 12 12 13 14 14 13 13 13 13 12 11 9 8 7 6 6 7 6 6 5 4 3 3 3 3
7 7 7 8 9 9 10 10 10 10 9 9 9 10 10 11 11 12 13 14 14 15 14 13 13 13 13 12 12 10 9 8 6 5 6 7 7 6 5 4 3 2 2
8 9 9 10 11 11 12 12 12 12 11 11 11 11 11 12 13 13 14 15 16 16 14 14 13 13 12 12 12 11 10 9 8 7 6 7 7 7 7 6 5 4 3
10 11 11 12 12 13 13 13 14 14 13 13 13 13 13 14 14 14 15 16 16 15 14 14 14 13 12 12 12 11 11 10 9 9 8 8 8 8 8 8 7 6 6
10 11 11 11 12 12 12 13 14 14 15 15 15 15 15 15 15 15 15 15 15 15 14 14 14 14 13 13 12 12 11 11 11 10 10 10 10 10 10 10 9 9 8
11 11 12 11 11 12 12 13 14 15 15 16 16 16 16 15 16 16 16 16 16 15 15 14 14 15 15 15 14 14 13 12 12 12 12 12 12 11 11 11 11 11 11
11 11 12 12 12 12 13 14 14 15 15 16 17 17 17 17 17 17 17 17 17 17 16 16 16 16 16 17 17 17 16 15 15 14 14 14 13 12 12 12 13 13 13
13 13 13 13 13 14 15 15 16 16 17 17 17 18 18 19 19 19 19 18 18 18 18 18 18 18 18 19 19 20 19 19 18 18 17 17 16 15 14 13 14 14 15
16 17 17 17 17 17 18 19 19 19 19 19 19 19 20 21 21 21 21 21 21 21 21 21 21 20 21 21 22 22 22 22 22 21 21 20 19 18 17 16 16 15 15
20 20 21 22 22 21 22 23 23 22 22 22 22 22 23 23 23 24 24 25 24 24 24 24 24 24 24 24 24 24 25 25 25 25 24 24 23 21 20 20 19 17 17
25 23 24 26 27 26 25 26 27 26 26 26 26 26 26 27 27 27 27 28 28 28 28 28 28 27 27 27 27 26 27 27 28 29 29 28 27 25 24 23 22 21 19
29 29 28 28 30 31 30 30 30 29 29 29 29 30 30 30 31 32 31 32 32 32 31 31 31 30 30 29 28 28 29 29 29 31 32 32 31 30 28 26 25 24 22
33 34 34 34 34 34 35 35 34 33 32 32 32 32 33 33 34 35 35 35 35 35 34 34 33 33 32 31 31 30 30 30 31 32 32 33 33 33 32 30 28 26 25
35 36 38 37 35 35 36 37 37 36 36 35 34 34 35 35 36 36 37 38 38 37 37 36 36 36 35 34 33 32 32 33 34 33 33 34 35 35 34 33 31 29 28
36 36 35 35 35 36 37 37 36 36 36 36 36 37 37 36 37 37 38 39 40 39 39 39 38 38 37 36 34 34 34 34 36 36 35 35 35 35 35 34 32 31 31
37 36 34 35 36 36 36 35 36 36 36 37 38 38 38 38 38 38 38 40 41 41 41 39 39 39 36 36 36 35 35 35 36 36 37 36 34 34 35 35 34 32 31
37 37 38 38 38 37 37 37 37 36 37 38 39 39 39 40 40 40 40 41 42 42 42 40 39 38 36 37 36 35 34 35 36 37 37 36 34 33 33 33 34 33 32
38 39 40 40 39 39 40 39 38 38 38 38 39 40 40 41 41 41 41 42 42 42 42 40 39 38 37 37 37 36 35 35 35 36 35 35 33 32 32 33 32 32 31
37 39 39 38 38 38 39 40 40 39 39 38 38 39 39 40 41 41 41 42 42 42 41 41 41 40 39 38 38 38 37 35 34 34 34 34 33 32 31 32 32 32 31
34 36 37 37 37 38 38 39 39 39 39 38 38 38 39 39 40 40 41 41 43 44 43 42 41 41 41 41 41 39 38 37 35 33 34 35 33 32 31 31 32 31 31
34 35 36 36 37 38 38 39 39 39 38 38 37 37 37 37 38 39 40 41 42 43 43 42 43 43 43 43 41 40 40 38 37 35 33 33 33 32 31 31 31 32 32
34 35 36 37 38 39 40 41 41 41 41 40 39 37 37 37 38 39 40 40 41 43 43 44 44 44 44 43 42 41 41 40 38 36 33 32 32 32 32 31 31 31 31
Wind_Direction
72 62 55 48 42 38 37 35 32 28 24 20 19 18 18 19 21 22 22 23 24 25 23 22 21 20 21 24 29 34 40 43 47 51 56 59 62 67 73 76 78 79 76
62 53 52 49 43 38 35 33 30 27 22 18 15 14 14 14 16 18 18 17 17 18 19 19 19 18 17 17 20 24 30 34 36 39 45 50 53 57 62 65 67 71 72
45 37 39 39 37 32 26 22 22 21 18 15 11 9 10 10 12 13 13 12 10 10 12 13 14 15 15 15 14 16 20 24 24 24 27 35 39 43 49 51 49 49 54
19 11 9 10 12 10 7 5 5 7 7 5 2 1 1 1 2 4 5 5 4 4 4 6 8 9 10 10 11 9 10 14 15 9 6 16 25 27 34 36 32 28 27
345 343 344 343 343 342 341 341 341 342 344 346 347 347 347 349 349 350 352 352 354 354 354 355 359 3 5 6 7 7 5 3 3 359 348 350 1 1 8 10 8 15 18
332 328 325 323 323 323 323 323 322 322 323 326 328 330 332 333 334 335 337 338 339 340 342 344 347 352 358 3 4 4 2 357 351 347 337 332 337 335 330 325 326 335 350
319 317 312 310 310 311 312 311 312 311 312 313 316 317 319 322 324 324 326 327 328 328 328 331 333 338 344 351 356 359 359 355 349 338 324 317 318 317 312 307 300 299 305
306 306 305 303 303 304 306 306 307 305 303 304 306 308 311 314 317 320 321 322 323 323 322 321 322 323 327 332 340 346 351 352 348 337 324 313 306 304 302 299 296 291 290
299 299 299 299 300 301 303 304 304 303 301 300 301 302 305 309 312 315 319 322 324 324 322 319 317 315 315 317 322 328 335 340 340 337 329 319 310 302 297 294 293 290 285
300 296 295 296 299 300 301 302 302 300 299 299 300 300 302 305 307 309 313 316 318 321 320 318 315 312 310 309 309 311 314 320 326 329 328 325 318 307 298 291 288 286 283
301 297 295 295 296 296 299 301 302 300 300 299 300 299 300 300 302 304 306 309 312 313 313 313 311 308 306 303 301 300 300 303 307 311 315 317 318 312 304 295 289 284 280
299 297 296 294 294 294 294 296 298 297 297 298 298 297 297 297 297 298 300 303 304 306 307 307 307 305 302 300 297 294 292 292 293 297 300 303 307 309 309 302 293 285 280
296 297 296 293 290 290 291 291 292 293 294 294 295 294 294 295 294 294 295 295 297 299 300 301 303 303 300 297 295 291 288 285 285 287 288 290 295 299 301 298 294 287 280
291 291 291 290 288 287 288 289 289 290 290 291 291 291 291 291 291 291 292 292 293 294 294 295 297 298 297 296 295 293 288 286 283 282 282 282 284 287 288 288 289 287 283
288 286 286 286 285 284 284 285 286 287 287 288 287 287 287 287 287 287 287 288 288 288 289 290 291 292 293 294 292 292 290 285 281 278 276 274 275 276 279 280 282 284 284
290 290 285 284 282 281 280 279 280 281 282 284 284 284 284 284 284 284 284 284 284 284 284 285 287 288 290 290 288 287 287 284 282 279 274 270 270 270 272 274 277 279 282
293 292 288 287 281 280 277 276 274 274 275 277 278 279 279 279 280 281 281 281 280 280 281 282 283 283 284 284 284 284 285 283 283 283 278 270 267 267 267 269 271 274 277
295 292 289 284 281 279 277 275 276 275 275 276 275 275 274 274 275 275 276 277 278 279 279 280 281 281 280 280 281 283 284 283 283 283 281 274 268 264 263 264 266 269 272
298 295 291 288 283 283 280 277 278 278 278 277 276 276 275 275 274 274 274 275 277 278 278 277 279 281 280 279 280 282 283 283 283 282 281 278 273 266 261 259 261 264 267
302 299 294 293 289 285 281 281 279 278 280 279 278 278 279 279 277 276 275 276 279 280 279 277 278 281 280 280 280 281 282 282 282 282 281 279 276 269 262 257 257 260 264
302 300 300 299 295 292 289 286 283 281 280 278 278 278 277 277 277 278 278 279 280 282 281 279 281 281 280 281 280 281 281 282 281 280 280 278 275 268 260 257 255 256 260
299 299 301 300 297 294 292 289 287 284 280 279 278 277 277 277 277 278 279 281 281 281 283 284 285 284 283 282 282 282 281 280 280 280 279 277 273 267 259 257 254 255 258
298 299 299 298 297 295 294 292 290 287 284 281 280 279 278 278 277 278 278 279 280 282 284 284 284 284 284 283 282 282 281 280 279 278 277 275 271 266 260 256 253 254 256
299 298 297 296 296 295 294 293 292 290 288 285 283 280 279 278 278 279 279 280 281 283 284 285 282 283 282 283 282 281 280 280 280 279 276 274 270 265 260 256 253 254 254
299 298 297 296 295 294 293 293 291 291 289 288 286 284 281 280 280 280 281 282 282 283 283 283 282 282 282 281 279 279 279 280 280 278 277 274 268 264 260 258 256 255 255
303 301 300 298 296 294 293 291 290 289 287 286 285 284 283 282 282 282 282 283 283 283 283 283 282 281 280 278 277 277 277 278 279 277 276 273 269 264 262 260 259 258 256
Height
5932 5932 5931 5931 5930 5929 5929 5928 5928 5927 5927 5926 5925 5924 5923 5922 5920 5919 5917 5915 5914 5912 5910 5908 5906 5905 5904 5903 5901 5900 5899 5898 5897 5896 5894 5893 5892 5892 5891 5891 5891 5890 5890
5934 5933 5933 5932 5931 5931 5930 5929 5929 5928 5928 5927 5926 5925 5924 5922 5921 5919 5918 5916 5914 5913 5911 5909 5907 5906 5904 5903 5902 5901 5900 5899 5897 5896 5895 5894 5893 5892 5892 5891 5891 5891 5890
5935 5934 5934 5933 5933 5932 5931 5930 5929 5929 5928 5927 5926 5925 5924 5923 5922 5920 5918 5917 5915 5913 5912 5910 5908 5906 5905 5903 5902 5901 5900 5899 5898 5896 5895 5894 5893 5893 5892 5892 5891 5891 5891
5936 5935 5935 5934 5934 5933 5932 5931 5930 5929 5928 5927 5926 5925 5924 5923 5922 5920 5919 5917 5916 5914 5912 5910 5908 5907 5905 5903 5902 5901 5900 5899 5898 5897 5895 5895 5894 5893 5892 5892 5892 5891 5891
5936 5936 5935 5935 5934 5934 5933 5932 5931 5930 5929 5927 5926 5925 5924 5923 5922 5920 5919 5918 5916 5915 5913 5911 5909 5907 5906 5904 5902 5901 5900 5899 5898 5897 5895 5894 5894 5893 5892 5892 5891 5891 5891
5937 5936 5936 5935 5934 5934 5933 5932 5931 5930 5929 5927 5926 5925 5924 5923 5921 5920 5919 5917 5916 5914 5913 5911 5910 5908 5906 5904 5903 5901 5900 5899 5898 5897 5895 5894 5893 5893 5892 5891 5891 5890 5890
5936 5936 5935 5934 5934 5933 5932 5932 5931 5929 5928 5927 5925 5924 5923 5922 5921 5919 5918 5916 5915 5914 5912 5911 5909 5908 5906 5905 5903 5902 5900 5899 5898 5897 5896 5894 5893 5892 5891 5891 5890 5890 5889
5935 5934 5934 5933 5933 5932 5931 5930 5929 5928 5927 5926 5924 5923 5922 5921 5919 5918 5917 5915 5914 5912 5911 5910 5908 5907 5906 5905 5903 5902 5900 5899 5897 5896 5895 5894 5893 5892 5891 5890 5889 5888 5888
5934 5933 5932 5932 5931 5930 5929 5928 5927 5926 5925 5924 5923 5921 5920 5919 5917 5916 5915 5913 5912 5910 5909 5908 5907 5906 5904 5903 5902 5901 5900 5899 5897 5896 5894 5893 5892 5890 5889 5888 5887 5887 5886
5933 5932 5931 5930 5929 5928 5927 5926 5925 5924 5923 5922 5920 5919 5918 5916 5915 5914 5912 5911 5910 5908 5907 5905 5904 5903 5902 5901 5900 5899 5898 5897 5896 5895 5893 5892 5891 5889 5888 5887 5886 5885 5884
5931 5930 5929 5928 5927 5926 5925 5923 5922 5921 5920 5919 5918 5916 5915 5914 5912 5911 5909 5908 5907 5905 5904 5903 5901 5900 5899 5898 5897 5896 5896 5895 5894 5893 5892 5891 5889 5888 5886 5885 5884 5883 5882
5929 5928 5926 5925 5924 5923 5921 5920 5919 5918 5917 5915 5914 5913 5912 5910 5909 5907 5906 5904 5903 5902 5900 5899 5898 5896 5895 5895 5894 5893 5892 5891 5891 5890 5889 5888 5887 5885 5884 5883 5882 5881 5880
5927 5925 5923 5922 5921 5920 5918 5917 5915 5914 5913 5911 5910 5909 5907 5906 5904 5903 5902 5900 5899 5898 5896 5895 5894 5892 5891 5890 5889 5888 5888 5887 5886 5886 5885 5884 5883 5882 5881 5880 5879 5878 5877
5924 5922 5920 5918 5916 5915 5914 5912 5911 5909 5908 5907 5906 5904 5903 5901 5900 5898 5896 5895 5894 5893 5891 5890 5889 5888 5886 5885 5884 5883 5882 5881 5880 5880 5880 5879 5879 5878 5878 5877 5876 5875 5874
5919 5919 5917 5914 5912 5910 5909 5907 5905 5904 5903 5901 5900 5899 5897 5895 5894 5893 5891 5889 5888 5887 5886 5884 5883 5882 5881 5879 5878 5877 5876 5875 5874 5874 5873 5873 5873 5873 5873 5872 5871 5871 5870
5913 5912 5911 5908 5906 5903 5902 5900 5898 5897 5896 5894 5893 5892 5890 5888 5887 5885 5884 5883 5881 5880 5879 5878 5876 5875 5874 5873 5871 5870 5869 5868 5867 5866 5866 5866 5866 5866 5867 5866 5866 5865 5865
5905 5903 5901 5899 5897 5894 5892 5891 5890 5889 5888 5887 5886 5885 5883 5881 5879 5877 5876 5874 5873 5872 5871 5870 5868 5867 5866 5865 5864 5862 5861 5860 5859 5858 5857 5857 5858 5858 5859 5859 5859 5859 5859
5896 5894 5891 5888 5886 5882 5881 5879 5878 5879 5879 5878 5877 5876 5875 5873 5871 5869 5867 5865 5863 5862 5861 5860 5859 5858 5857 5856 5855 5854 5853 5852 5850 5849 5849 5848 5849 5849 5850 5851 5852 5852 5852
5888 5886 5881 5879 5877 5874 5872 5869 5867 5868 5868 5867 5866 5865 5864 5863 5861 5859 5857 5855 5852 5851 5850 5849 5848 5847 5846 5846 5845 5845 5844 5843 5841 5840 5840 5839 5839 5840 5841 5842 5844 5845 5845
5879 5877 5873 5871 5868 5866 5864 5860 5859 5859 5859 5858 5857 5855 5853 5852 5851 5849 5848 5845 5842 5840 5839 5838 5837 5836 5836 5835 5835 5835 5834 5833 5832 5831 5830 5829 5830 5830 5831 5833 5835 5836 5837
5873 5869 5864 5862 5860 5856 5854 5853 5852 5851 5850 5848 5847 5846 5844 5842 5840 5839 5837 5835 5833 5831 5828 5827 5827 5827 5826 5825 5825 5825 5825 5823 5822 5821 5820 5819 5820 5820 5821 5823 5826 5827 5829
5867 5863 5859 5855 5851 5848 5845 5844 5843 5841 5840 5839 5837 5836 5834 5832 5830 5829 5827 5825 5823 5821 5819 5818 5817 5817 5816 5815 5815 5814 5815 5815 5813 5812 5811 5810 5810 5811 5812 5814 5816 5819 5820
5861 5857 5852 5848 5843 5840 5836 5834 5832 5831 5830 5828 5827 5826 5824 5822 5820 5818 5817 5815 5813 5810 5809 5808 5807 5807 5807 5806 5805 5804 5804 5805 5804 5804 5802 5801 5801 5802 5803 5805 5807 5810 5812
5855 5850 5846 5841 5837 5833 5829 5826 5823 5821 5819 5818 5817 5815 5814 5812 5810 5808 5807 5805 5804 5802 5801 5800 5798 5798 5797 5796 5795 5794 5794 5794 5794 5794 5794 5792 5793 5793 5794 5796 5798 5801 5803
5847 5843 5838 5834 5829 5825 5821 5818 5815 5812 5810 5808 5806 5805 5804 5802 5800 5799 5797 5795 5794 5792 5791 5790 5789 5788 5787 5786 5786 5785 5784 5784 5784 5785 5785 5784 5785 5785 5787 5788 5790 5792 5794
5839 5834 5829 5825 5821 5817 5813 5809 5806 5803 5800 5798 5796 5795 5793 5792 5790 5788 5787 5785 5784 5782 5780 5779 5778 5777 5776 5775 5775 5774 5774 5775 5775 5775 5775 5775 5776 5777 5778 5779 5781 5783 5785